Probability
0 0 0 0 0 0 0 0 0 0 0 0 0 0 0 1 3 2 1 1 2 2 2 2 3 3 3 3 2 1 1 1 1 0 0 0 0 0 0 0 0 0 0
0 0 0 0 0 0 0 0 0 0 0 0 0 0 0 2 3 2 1 0 2 3 3 3 3 3 3 4 3 2 1 1 0 0 0 0 0 0 0 0 0 0 0
0 0 0 0 0 0 0 0 0 0 0 0 0 0 0 1 2 3 1 1 2 3 3 3 3 3 4 5 5 4 2 1 0 0 0 0 0 0 0 0 0 0 0
0 0 0 0 0 0 0 0 0 0 0 0 0 0 0 0 1 2 1 1 2 3 3 3 3 3 3 4 5 5 3 1 0 0 0 0 0 0 0 0 0 0 0
0 0 0 0 0 0 0 0 0 0 0 0 0 0 0 0 0 1 0 1 2 3 3 3 3 4 3 3 4 5 3 1 1 0 0 0 0 0 0 0 0 0 0
0 0 0 0 0 0 0 0 0 0 0 0 0 0 0 0 0 0 0 0 1 1 2 3 4 4 4 3 4 4 3 1 0 0 0 0 0 0 0 0 0 0 0
0 0 0 0 0 0 0 0 0 0 0 0 0 0 0 0 0 0 0 0 0 0 1 3 3 3 3 3 4 3 1 0 0 0 0 0 0 0 0 0 0 0 1
0 0 0 0 0 0 0 0 0 0 0 0 0 0 0 0 0 0 0 0 0 0 1 3 3 1 2 3 3 2 1 0 0 0 0 0 0 0 0 0 1 1 2
0 0 0 0 0 0 0 0 0 0 0 0 0 0 0 0 0 0 0 0 0 1 2 3 3 1 1 2 1 1 0 0 0 0 0 0 0 0 0 1 2 3 3
0 0 0 0 0 0 0 0 0 0 0 0 0 0 0 0 0 0 0 0 0 1 2 3 2 2 1 1 0 0 0 0 0 0 0 0 0 0 0 1 3 3 3
0 0 0 0 0 0 0 0 0 0 0 0 0 0 0 0 0 0 0 0 0 1 1 2 1 1 1 0 0 0 0 0 0 0 0 0 0 0 1 2 2 3 3
0 0 0 0 0 0 0 0 0 0 0 0 0 0 0 0 0 0 0 0 0 0 0 0 0 0 1 0 1 1 1 0 0 0 0 0 0 1 2 1 1 2 3
0 0 0 0 0 0 0 0 0 0 0 0 0 0 0 0 0 0 0 0 0 0 0 0 0 0 0 0 1 1 1 0 0 0 0 0 0 0 1 0 0 1 2
0 0 0 0 0 0 0 0 0 0 0 0 0 0 0 0 0 0 0 0 0 0 0 0 0 0 0 0 0 0 0 0 0 0 0 0 0 0 0 0 0 0 1
0 0 0 0 0 0 0 0 0 0 0 0 0 0 0 0 0 0 0 0 0 0 0 0 0 0 0 0 0 0 0 0 0 0 0 0 0 0 0 0 0 0 0
0 0 0 0 0 0 0 0 0 0 0 0 0 0 0 0 0 0 0 0 0 0 0 0 0 0 0 0 0 0 0 0 0 0 0 0 0 0 0 0 0 0 0
0 0 0 0 0 0 0 0 0 0 0 0 0 0 0 0 0 0 0 0 0 0 0 0 0 0 0 0 0 0 0 0 0 0 0 0 0 0 0 0 0 0 0
0 0 0 0 0 0 0 0 0 0 0 0 0 0 0 0 0 0 0 0 0 0 0 0 0 0 0 0 0 0 0 0 0 0 0 0 0 0 0 0 0 0 0
0 0 0 0 0 0 0 0 0 0 0 0 0 0 0 0 0 0 0 0 0 0 0 0 0 0 0 0 0 0 0 0 0 0 0 0 0 0 0 0 0 0 0
0 0 0 0 0 0 0 0 0 0 0 0 0 0 0 0 0 0 0 0 0 0 0 0 0 0 0 0 0 0 0 0 0 0 0 0 0 0 0 0 0 0 0
0 0 0 0 0 0 0 0 0 0 0 0 0 0 0 0 0 0 0 0 0 0 0 0 0 0 0 0 0 0 0 0 0 0 0 0 0 0 0 0 0 0 0
0 0 0 0 0 0 0 0 0 0 0 0 0 0 0 0 0 0 0 0 0 0 0 0 0 0 0 0 0 0 0 0 0 0 0 0 0 0 0 0 0 0 0
0 0 0 0 0 0 0 0 0 0 0 0 0 0 0 0 0 0 0 0 0 0 0 0 0 0 0 0 0 0 0 0 0 0 0 0 0 0 0 0 0 0 0
0 0 0 0 0 0 0 0 0 0 0 0 0 0 0 0 0 0 0 0 0 0 0 0 0 0 0 0 0 0 0 0 0 0 0 0 0 0 0 0 0 0 0
0 0 0 0 0 0 0 0 0 0 0 0 0 0 0 0 0 0 0 0 0 0 0 0 0 0 0 0 0 0 0 0 0 0 0 0 0 0 0 0 0 0 0
0 0 0 0 0 0 0 0 0 0 0 0 0 0 0 0 0 0 0 0 0 0 0 0 0 0 0 0 0 0 0 0 0 0 0 0 0 0 0 0 0 0 0
Wind_Speed
1 2 1 4 6 7 8 9 9 9 9 9 9 9 10 10 9 9 9 9 9 8 8 8 8 9 9 9 9 8 8 8 7 7 7 7 6 6 6 6 5 3 5
2 1 3 4 6 7 7 8 9 9 9 9 9 9 9 10 9 9 9 9 8 8 8 8 8 9 9 9 8 8 8 8 8 8 8 7 6 6 6 6 5 3 5
2 1 2 5 6 7 8 8 8 9 9 9 9 9 9 10 10 9 9 9 8 8 9 9 9 9 8 8 8 8 8 8 8 8 7 4 3 5 5 5 5 5 5
3 2 2 5 7 8 8 8 8 9 9 9 9 9 10 10 10 9 9 8 8 8 9 9 9 9 8 8 8 8 8 8 8 7 4 3 3 5 5 5 5 5 5
3 3 3 6 7 8 8 9 9 10 9 9 9 10 10 9 9 9 8 8 8 8 8 8 8 8 8 8 8 9 9 9 8 6 3 3 2 4 5 5 5 5 5
4 3 3 7 7 8 8 9 9 9 9 10 10 10 10 9 9 8 7 7 7 7 7 7 8 8 8 8 8 8 9 9 7 4 3 3 2 4 5 5 5 5 5
3 3 3 7 7 8 8 9 9 9 9 10 10 9 9 8 8 8 7 7 7 7 7 7 7 7 7 8 8 8 8 8 5 4 3 3 3 6 5 5 5 5 5
4 3 3 6 7 7 8 8 9 9 9 9 9 9 9 9 8 7 6 7 7 7 6 6 7 7 8 8 8 9 9 7 5 4 3 3 5 6 6 6 6 6 6
4 4 3 3 4 6 7 8 8 8 9 9 9 9 8 8 8 7 7 6 6 6 6 5 6 7 7 7 8 9 9 9 5 3 3 2 5 6 6 7 7 7 7
4 4 3 4 4 3 4 6 7 8 8 8 8 8 8 8 8 8 7 7 6 5 6 6 7 7 7 8 9 9 9 7 4 4 2 3 6 6 7 6 7 7 7
3 3 3 3 3 3 3 4 5 6 7 7 6 8 7 5 5 5 6 7 7 6 7 7 8 9 9 8 9 9 7 3 3 3 2 5 7 7 8 8 8 8 8
1 1 2 2 2 2 3 3 3 3 4 4 4 4 4 3 4 5 7 9 9 9 9 9 9 8 6 4 5 7 3 3 3 2 3 7 8 9 10 9 9 9 8
2 2 2 2 2 2 2 2 2 2 3 3 4 4 3 3 3 4 3 4 5 7 5 6 6 4 4 3 3 3 3 3 2 2 3 8 9 9 10 10 9 9 9
2 2 2 2 2 2 2 2 2 2 2 2 3 3 3 2 3 3 3 3 3 2 3 3 3 4 4 4 3 3 3 2 2 2 3 8 8 9 9 9 9 9 9
3 2 2 2 2 2 2 1 2 2 2 2 2 2 2 2 2 2 2 3 3 2 3 3 3 4 4 4 3 4 3 3 3 3 3 7 8 8 8 8 8 8 8
4 3 2 2 2 3 2 2 2 2 2 2 2 2 2 2 2 2 3 3 3 2 2 2 3 3 3 3 3 3 3 3 3 3 3 4 7 8 8 8 8 8 7
4 3 3 3 3 3 2 2 2 2 2 2 2 2 2 2 2 2 2 2 2 2 3 3 3 3 3 3 3 3 2 3 3 3 3 3 4 6 8 7 7 7 7
4 4 3 3 4 3 3 2 2 2 2 2 2 2 2 3 3 2 2 2 2 2 2 3 3 3 3 3 3 3 3 2 3 3 3 3 3 3 5 7 7 7 6
4 4 4 3 4 4 3 2 2 2 2 2 2 2 2 3 3 3 2 2 2 2 2 2 3 2 2 3 3 3 3 3 3 3 3 3 3 3 3 5 7 7 6
4 4 4 3 3 4 3 3 3 3 2 2 2 2 2 2 3 3 3 3 3 3 3 3 3 3 2 2 3 3 3 3 3 3 3 3 3 3 3 4 4 5 7
4 4 4 4 4 4 2 2 2 2 1 1 1 2 2 2 3 3 3 3 3 2 2 2 2 3 3 2 2 3 3 3 4 3 2 2 3 3 3 3 3 3 3
5 5 5 5 5 4 3 2 2 2 1 1 1 2 2 2 2 2 3 2 2 2 3 3 2 2 2 2 2 2 2 4 3 3 3 2 3 2 3 3 3 3 2
5 6 6 5 5 5 4 3 3 3 2 2 1 1 1 1 2 2 2 2 2 2 2 1 2 2 1 2 2 2 2 1 2 3 3 3 3 3 2 2 3 3 3
6 5 5 6 5 5 5 4 4 3 2 2 1 1 0 1 1 2 2 2 2 2 2 1 2 1 2 1 1 2 1 2 1 1 3 3 3 3 3 2 3 3 2
6 5 5 5 4 4 4 5 4 3 2 1 1 2 1 1 1 1 2 2 2 1 1 1 1 1 1 1 1 1 1 2 1 2 1 3 3 2 2 2 2 2 3
4 5 5 6 5 4 5 4 5 5 4 3 2 2 1 0 0 1 1 1 1 1 1 1 1 2 1 1 1 1 1 1 1 1 1 1 2 2 2 2 2 2 2
Wind_Direction
263 276 108 91 86 85 83 83 81 81 84 86 90 94 95 97 101 101 101 100 96 95 95 93 92 94 90 88 88 86 85 86 85 84 84 88 96 99 99 95 94 90 96
168 192 122 101 96 92 86 84 82 81 83 87 90 93 96 97 98 100 100 98 97 96 97 96 93 91 89 87 86 85 85 84 84 80 74 70 78 85 90 95 95 94 96
112 116 119 108 100 96 90 86 84 86 86 87 90 92 95 95 95 97 99 99 97 96 94 94 92 89 86 86 85 84 86 85 80 75 65 47 55 76 78 88 93 91 91
108 100 110 107 98 94 90 86 85 84 86 86 90 93 93 93 93 93 93 94 95 95 94 93 92 88 85 85 87 87 86 84 80 74 56 39 38 74 76 82 87 88 89
85 78 100 102 97 94 94 91 88 84 82 85 88 90 89 91 93 91 89 89 89 92 93 90 89 87 86 86 88 87 85 81 75 65 50 37 28 67 73 77 82 84 84
78 68 92 99 98 94 94 92 90 87 83 84 86 89 88 87 88 87 87 86 86 88 95 94 93 88 86 87 88 86 84 79 68 55 47 34 29 60 71 77 76 77 79
88 72 83 99 96 93 93 92 91 88 84 81 82 83 85 86 85 83 83 81 80 85 91 95 92 86 84 83 84 83 81 76 66 53 44 34 39 58 70 70 71 72 74
98 84 78 96 97 96 97 95 91 86 84 82 80 78 79 78 78 80 78 74 73 75 81 92 92 84 81 78 79 79 76 71 63 52 44 35 52 61 68 70 69 68 71
84 78 63 63 75 89 93 94 91 87 83 82 78 75 73 70 68 67 67 69 72 73 73 81 87 85 81 80 80 77 77 70 56 39 45 37 60 62 63 65 67 66 65
77 72 64 60 55 54 63 82 86 82 78 76 72 68 62 56 53 53 51 53 58 65 66 70 79 76 78 75 74 75 75 63 47 37 26 40 55 56 55 61 67 69 65
83 69 69 67 62 60 58 62 67 71 65 63 56 58 51 35 31 32 39 48 50 57 62 69 74 72 69 66 68 69 64 46 41 31 21 46 51 54 55 61 65 70 66
129 99 87 89 81 68 66 55 46 50 49 50 46 44 42 36 32 36 33 43 46 53 56 63 66 63 61 53 58 62 51 43 38 23 30 50 56 53 54 61 63 64 61
162 131 115 115 98 84 67 64 49 47 46 47 47 43 42 39 32 33 29 29 32 43 42 44 45 44 50 52 53 56 57 51 34 20 28 48 56 56 53 57 61 61 57
146 153 134 121 108 101 93 79 73 64 54 49 43 45 46 41 34 29 31 27 33 36 42 41 45 42 46 53 60 61 57 52 40 25 22 39 49 53 56 56 56 54 51
161 167 151 135 130 119 100 81 79 72 71 66 53 44 56 61 43 32 30 32 34 38 45 47 49 44 41 47 56 61 51 43 40 35 17 30 42 49 53 57 56 53 52
174 171 153 143 138 123 116 103 88 83 80 73 58 46 57 69 67 55 45 38 31 34 43 50 53 52 43 47 54 53 47 39 38 36 27 23 33 42 49 52 52 51 52
175 171 159 151 131 127 126 113 96 90 84 71 58 48 57 70 77 72 62 45 26 32 47 55 50 51 47 41 41 41 47 43 39 35 33 27 20 31 42 47 49 52 51
167 167 169 160 140 137 130 116 96 90 87 75 66 57 61 72 77 79 72 48 33 42 50 57 50 51 43 37 30 24 33 39 36 35 39 35 29 22 28 38 41 47 50
171 167 161 154 149 146 135 115 95 88 81 76 73 64 64 74 78 86 80 54 48 52 46 56 51 58 52 38 40 33 27 29 25 38 39 33 31 25 18 25 29 35 41
166 159 153 144 143 133 119 100 82 74 67 65 69 75 81 72 80 87 81 66 62 65 52 53 63 53 56 45 54 42 24 23 33 39 34 27 24 28 28 25 19 17 27
161 157 156 151 149 136 127 127 118 111 89 63 57 74 83 84 88 90 81 74 67 74 70 69 71 63 44 22 57 30 14 29 38 32 28 30 24 19 28 27 21 15 9
176 173 166 167 162 159 156 142 133 124 113 101 63 63 75 93 99 102 102 95 86 82 70 58 63 74 39 27 76 71 13 1 8 20 20 31 15 12 23 23 21 16 11
178 178 175 174 168 164 145 112 91 73 63 60 51 41 33 95 96 100 114 109 103 100 100 80 79 97 96 25 44 119 125 226 325 348 9 18 11 15 7 7 15 5 3
192 178 170 167 165 161 149 146 143 145 158 191 180 174 137 104 108 114 118 115 112 104 107 96 89 94 111 77 25 41 100 156 138 338 342 355 3 12 359 2 359 352 351
182 170 167 156 156 155 156 160 155 151 162 151 133 142 142 106 112 125 131 127 130 126 127 104 90 89 100 120 115 91 66 54 87 137 301 329 347 342 345 342 338 337 338
164 163 162 161 164 162 162 166 168 166 162 152 156 167 177 164 178 168 147 146 150 143 148 146 130 120 105 104 104 108 130 134 150 147 190 274 307 309 328 331 334 329 331